Regional Weather Roundup
Issued by NWS Huntsville, AL

Home | Current Version | Previous Version | Text Only | Print | Product List | Glossary On
Versions: 1 2 3 4 5 6 7 8 9 10 11 12 13 14 15 16 17 18 19 20 21 22 23 24 25 26 27 28 29 30 31 32 33 34 35 36 37 38 39 40 41 42 43 44 45 46 47 48 49 50
000
ASUS44 KHUN 172110
RWRHUN

WEATHER ROUNDUP FOR THE TENNESSEE VALLEY
NATIONAL WEATHER SERVICE HUNTSVILLE AL
300 PM CST WED DEC 17 2014

ALZ001>004-172200-
NORTHWEST ALABAMA

CITY           SKY/WX    TMP DP  RH WIND       PRES   REMARKS
COURTLAND HCN    N/A     45 N/A N/A W5          N/A
RUSSELLVILLE     N/A     46 N/A N/A MISG        N/A
SHOALS AIRPORT CLOUDY    47  33  58 CALM      30.24F
SHOALS TVA RES   N/A     46 N/A N/A MISG        N/A
$$

ALZ005>007-016-172200-
NORTH CENTRAL ALABAMA

CITY           SKY/WX    TMP DP  RH WIND       PRES   REMARKS
CULLMAN AG STN   N/A     45 N/A N/A CALM        N/A
DECATUR AP     CLOUDY    46  35  65 N5        30.23S
HUNTSVILLE AP  CLOUDY    46  35  65 NW5       30.22S
HUN NWS/UAH      N/A     44  33  65 N5          N/A
MERIDIANVILLE  CLOUDY    41  30  65 NE5       30.22S
REDSTONE ARSN  CLOUDY    43  36  75 N7        30.22R
VINEMONT AP    MOCLDY    44  34  69 NW7       30.23S
$$

ALZ008>010-172200-
NORTHEAST ALABAMA

CITY           SKY/WX    TMP DP  RH WIND       PRES   REMARKS
ALBERTVILLE    CLOUDY    43  37  81 N6        30.19R
FORT PAYNE     CLOUDY    45  32  61 N3        30.18S
SCOTTSBORO AP  CLOUDY    46  36  66 CALM      30.20S
VALLEY HEAD      N/A     46 N/A N/A MISG        N/A
$$

TNZ076-096-097-172200-
SOUTHEASTERN MIDDLE TENNESSEE

CITY           SKY/WX    TMP DP  RH WIND       PRES   REMARKS
TULLAHOMA      CLOUDY    37  30  75 NW7       30.22R WCI  32
WINCHESTER     CLOUDY    39  34  81 N3        30.22R
$$

...SURROUNDING SITES...

CITY           SKY/WX    TMP DP  RH WIND       PRES   REMARKS
ATLANTA        PTSUNNY   47  37  68 W12       30.14S
ANNISTON       CLOUDY    47  36  65 NW7       30.20R
BIRMINGHAM     CLOUDY    45  35  68 N8        30.22F
CHATTANOOGA    CLOUDY    46  34  62 NE7       30.18F
CORINTH        FAIR      46  34  61 NW5       30.24S
DALTON         PTSUNNY   45  37  76 N6        30.18S
GADSDEN        PTSUNNY   46  34  61 NW3       30.20S
GOLDEN TRNGL   SUNNY     52  37  58 NW5       30.22F
HALEYVILLE     FAIR      46  36  68 CALM      30.23S
JACKSON TN     CLOUDY    40  30  67 CALM      30.26F
LEWISBURG      FAIR      40  31  70 CALM      30.24R
MEMPHIS        CLOUDY    44  33  65 NW5       30.26F
MURFREESBORO   CLOUDY    38  30  73 NW5       30.24F WCI  34
NASHVILLE      CLOUDY    39  29  67 NW6       30.26R WCI  35
OXFORD MS      FAIR      45  32  61 NW7       30.26S
ROME           PTSUNNY   47  36  65 N6        30.18R
SAVANNAH       SUNNY     43  30  61 N5        30.25S
TUPELO         PTSUNNY   48  35  60 NE6       30.24R
TUSCALOOSA     MOSUNNY   51  37  58 NE9       30.22S
$$

...GULF COAST WEATHER...

CITY           SKY/WX    TMP DP  RH WIND       PRES   REMARKS
GULFPORT       PTSUNNY   60  39  45 W6        30.20R
PASCAGOULA     PTSUNNY   60  38  43 N5        30.19S
MOBILE         CLOUDY    59  40  49 NW6       30.18F
GULF SHORES    CLOUDY    57  44  62 W7        30.18R
PENSACOLA      CLOUDY    57  41  55 S6        30.16F
DESTIN         MOSUNNY   58  44  60 VRB5      30.16F
PANAMA CITY    CLOUDY    57  45  64 W8        30.15F
APPALACHICOLA  CLOUDY    62  44  51 W9        30.15R
$$




USA.gov is the U.S. government's official web portal to all federal, state and local government web resources and services.